Regional Weather Roundup
Issued by NWS Green Bay, WI

Home | Current Version | Previous Version | Graphics & Text | Print | Product List | Glossary Off
Versions: 1 2 3 4 5 6 7 8 9 10 11 12 13 14 15 16 17 18 19 20 21 22 23 24 25 26 27 28 29 30 31 32 33 34 35 36 37 38 39 40 41 42 43 44 45 46 47 48 49 50

000
ASUS43 KGRB 190711
RWRGRB

NORTH-CENTRAL AND NORTHEAST WISCONSIN REGIONAL WEATHER ROUNDUP
NATIONAL WEATHER SERVICE GREEN BAY WI
200 AM CDT SAT AUG 19 2017

WIZ005-009-010>012-018-019-190800-
NORTH CENTRAL WISCONSIN

CITY           SKY/WX    TMP DP  RH WIND       PRES   REMARKS
IRONWOOD       CLOUDY    60  58  92 SW5       29.86F
MANITOWISH WTR CLOUDY    59  59 100 CALM      29.88F FOG
ARBOR VITAE    CLOUDY    62  61  96 W3        29.89F
EAGLE RIVER      N/A     54  54 100 CALM      29.89S FOG
LAND O LAKES   CLOUDY    52  52 100 CALM      29.90S FOG
RHINELANDER    MOCLDY    56  56 100 W6        29.90F FOG
PHILLIPS       CLEAR     59  59 100 CALM      29.90F
ANTIGO         CLOUDY    54  54 100 W3        29.91S FOG
TOMAHAWK       FOG       55  54  97 CALM      29.91S VSB 3/4
MERRILL        FOG       61  61 100 NW5       29.91S VSB 1
$$

WIZ013-073-190800-
NORTHEAST WISCONSIN

CITY           SKY/WX    TMP DP  RH WIND       PRES   REMARKS
IRON MOUNTAIN  CLOUDY    56  52  86 CALM      29.85F
MARINETTE      MOCLDY    60  57  89 CALM      29.87F
OCONTO         CLOUDY    56  55  97 CALM      29.86F
$$

WIZ017-030-035>037-045-190800-
CENTRAL WISCONSIN

CITY           SKY/WX    TMP DP  RH WIND       PRES   REMARKS
MEDFORD        FOG       61  61  99 W6        29.91F VSB 3/4
WAUSAU         CLOUDY    63  62  97 NW9       29.89S FOG
MOSINEE        CLOUDY    59  59 100 W6        29.92S FOG
MARSHFIELD     CLEAR     61  59  93 W7        29.91S FOG
WISC RAPIDS    CLOUDY    63  62  97 W6        29.92S
STEVENS POINT  CLOUDY    60  60 100 CALM      29.91S
WAUPACA        CLOUDY    65  64  97 CALM      29.90S FOG
SHAWANO        CLOUDY    64  60  88 CALM      29.88F
CLINTONVILLE   CLOUDY    61  59  94 SW3       29.88F
WAUTOMA        CLOUDY    63  62  97 W5        29.91
$$

WIZ038-039-048-051-190800-
FOX VALLEY

CITY           SKY/WX    TMP DP  RH WIND       PRES   REMARKS
NWS GREEN BAY  CLOUDY    62  62 100 W3        29.88F
APPLETON       CLOUDY    61  61 100 W6        29.87F
OSHKOSH        CLOUDY    64  62  93 W3        29.89F
FOND DU LAC    CLOUDY    65  61  87 W5        29.90F
$$

WIZ022-050-052-190800-
EAST CENTRAL WISCONSIN

CITY           SKY/WX    TMP DP  RH WIND       PRES   REMARKS
EPHRAIM        FAIR      62  57  86 W5        29.86F
WASHINGTON ISL FAIR      64  57  79 NW3       29.85S
STURGEON BAY   CLOUDY    60  57  89 SW5       29.87F
MANITOWOC      PTCLDY    63  60  90 CALM      29.88F
SHEBOYGAN      CLOUDY    63  62  97 CALM      29.89F
$$

LMZ563-521-522-541>543-190800-
LAKESHORE

STATION/POSITION TIME  TEMP    WIND        PRES    VSBY  WAVE
                       AIR SEA DIR/SP/G                  HT/PER
                 (UTC) (F)     (DEG/KT/KT) (MB)    (MI)  (FT/S)
SHEBOYGAN LKSHOR 0700   66     280/  3/  3 1011.6F
KEWAUNEE LKSHORE 0642          300/  2/  4 1010.9F
NORTHPORT PIER   0640   66     290/  5/  9 1011.2R
N MID LAKE BUOY  0650   66 66  300/ 14/ 16 1011.0R
S GREEN BAY BUOY 0700   68 70  240/ 10/ 10 1011.2
SISTER BAY LKSHO 0703   66     320/ 10/ 10   N/A
MENOMINEE LKSHOR 0642          250/  5/  7 1011.1F
$$



USA.gov is the U.S. government's official web portal to all federal, state and local government web resources and services.